Regional Weather Roundup
Issued by NWS

Home | Current Version | Previous Version | Graphics & Text | Print | Product List | Glossary On
Versions: 1 2 3 4 5 6 7 8 9 10 11 12 13 14 15 16 17 18 19 20 21 22 23 24 25 26 27 28 29 30 31 32 33 34 35 36 37 38 39 40 41 42 43 44 45 46 47 48 49 50
000
ASUS45 KCYS 031510
RWRWY

WYOMING REGIONAL WEATHER ROUNDUP
NATIONAL WEATHER SERVICE CHEYENNE WY
900 AM MDT THU SEP 03 2015

NOTE:  "FAIR" INDICATES FEW OR NO CLOUDS BELOW 12,000 FEET
WITH NO SIGNIFICANT WEATHER AND/OR OBSTRUCTIONS TO VISIBILITY.

WYZ001-031600-
YELLOWSTONE NATIONAL PARK

CITY           SKY/WX    TMP DP  RH WIND       PRES   REMARKS
LK YELLOWSTONE   N/A     56  47  71 CALM      30.09F
W YELLOWSTONE  NOT AVBL

$$
WYZ002>013-054>058-071-098>099-031600-
NORTHERN WYOMING

CITY           SKY/WX    TMP DP  RH WIND       PRES   REMARKS
JACKSON        FAIR      64  43  45 CALM      30.01S
CODY           FAIR      61  37  41 NE3       29.93S
GREYBULL       FAIR      71  39  31 S6        29.84S
WORLAND        FAIR      70  44  39 NE3       29.86R
SHERIDAN       FAIR      64  36  35 NW16      29.92R
BUFFALO          N/A     68  39  34 N14G25    29.94R
GILLETTE       FAIR      77  39  25 W9        29.88R
HULETT         FAIR      75  41  29 SW14      29.88R
NEWCASTLE      FAIR      75  39  27 SE9       29.91S

$$
WYZ014>020-022>026-101>103-031600-
CENTRAL WYOMING

CITY           SKY/WX    TMP DP  RH WIND       PRES   REMARKS
BIG PINEY      FAIR      56  36  47 CALM      30.11S
PINEDALE       FAIR      59  36  41 E5        30.12F
DUBOIS         FAIR      54  34  47 MISG      30.07S
LANDER         FAIR      68  37  32 E5        29.95S
RIVERTON       FAIR      65  41  41 NW6       29.96S
CASPER         FAIR      75  38  26 S22       29.98S
DOUGLAS        FAIR      77  40  26 CALM      29.97F

$$
WYZ021-027>030-104>119-031600-
SOUTHERN WYOMING

CITY           SKY/WX    TMP DP  RH WIND       PRES   REMARKS
EVANSTON       FAIR      64  36  35 S9        30.12R
KEMMERER       FAIR      59  36  41 CALM      30.12S
FORT BRIDGER   SUNNY     70  34  26 SW13      30.14S
ROCK SPRINGS   FAIR      62  41  46 S6        30.11S
DIXON          FAIR      60  48  65 CALM      30.17S
RAWLINS        FAIR      70  41  34 SW17      30.12S
SARATOGA       FAIR      63  43  48 SE8       30.16S
LARAMIE        FAIR      63  46  54 S8        30.17F
CHEYENNE       FAIR      70  46  42 CALM      30.08F
TORRINGTON     FAIR      73  54  51 CALM      29.93S
PINE BLUFFS    FAIR      75  46  35 CALM      30.01F

$$


USA.gov is the U.S. government's official web portal to all federal, state and local government web resources and services.